This is the latest recevied weather packets stored in our database for station/object KJ5EHN. If no packets are shown the sender has not sent any weather packets the latest 10 day(s).
| Time | Temp. | Humidity | Pressure | Rain* | Wind** | Luminosity | Snow |
|---|---|---|---|---|---|---|---|
| 1778278969 | 26.11° C | 63% | 1008.3 hPa | 0 mm | - | - | - |
| 1778278666 | 25.56° C | 63% | 1008.3 hPa | 0 mm | - | - | - |
| 1778278361 | 26.11° C | 63% | 1008.3 hPa | 0 mm | - | - | - |
| 1778278057 | 26.11° C | 63% | 1008.4 hPa | 0 mm | - | - | - |
| 1778277754 | 26.11° C | 63% | 1008.1 hPa | 0 mm | - | - | - |
| 1778277451 | 26.11° C | 63% | 1008.2 hPa | 0 mm | - | - | - |
| 1778277147 | 26.11° C | 63% | 1008.2 hPa | 0 mm | - | - | - |
| 1778276845 | 26.11° C | 64% | 1008.5 hPa | 0 mm | - | - | - |
| 1778276542 | 25.56° C | 65% | 1008.3 hPa | 0 mm | - | - | - |
| 1778276238 | 26.11° C | 63% | 1008.4 hPa | 0 mm | - | - | - |
| 1778275935 | 25.56° C | 64% | 1008.6 hPa | 0 mm | - | - | - |
| 1778275632 | 25.56° C | 64% | 1008.7 hPa | 0 mm | - | - | - |
| 1778275328 | 26.11° C | 62% | 1008.8 hPa | 0 mm | - | - | - |
| 1778275023 | 26.11° C | 63% | 1008.9 hPa | 0 mm | - | - | - |
| 1778274719 | 26.11° C | 62% | 1009 hPa | 0 mm | - | - | - |
| 1778274417 | 25.56° C | 63% | 1009.1 hPa | 0 mm | - | - | - |
| 1778274114 | 26.11° C | 61% | 1009.1 hPa | 0 mm | - | - | - |
| 1778273811 | 26.67° C | 60% | 1009.3 hPa | 0 mm | - | - | - |
| 1778273507 | 27.22° C | 59% | 1009.5 hPa | 0 mm | - | - | - |
| 1778273203 | 27.22° C | 58% | 1009.6 hPa | 0 mm | - | - | - |
| 1778272900 | 26.67° C | 58% | 1009.6 hPa | 0 mm | - | - | - |
| 1778272596 | 26.67° C | 57% | 1009.7 hPa | 0 mm | - | - | - |
| 1778272292 | 26.67° C | 59% | 1009.6 hPa | 0 mm | - | - | - |
| 1778271989 | 26.11° C | 57% | 1010 hPa | 0 mm | - | - | - |
| 1778271686 | 26.11° C | 58% | 1009.9 hPa | 0 mm | - | - | - |
* Rain latest hour (hover to see other rain measurements)
** Current wind speed in m/s (hover to see current wind gust speed)